OBJECT Z, 57189

Orbit data source: Space-Track

You're viewing an Uncataloged Satellite

Recently launched and/or uncataloged satellites may have evolving metadata. Metadata may include but not limited to: Owner, Maufacturer, Bus, Motor, and Mission.

OBJECT Z, 57189 is a satellite in SSO that was launched on Tue, 27 Jun 2023 UTC via a SOYUZ-2-1B launch vehicle from the Vostochny Cosmodrome (VOSTO). Unknown objects in Earth's orbit typically refer to objects detected orbiting the Earth but have not yet been identified or cataloged. These objects could be anything from previously untracked satellites, spent rocket stages, debris from satellite collisions, or even natural meteoroids temporarily captured by Earth's gravity.

Loading next visibility...
Identifier
57189, 2023-091Z
Orbit
SSO
Country
Flag of TBDTBD
Related business
Flag of RUOOO VIZARD (RU)
Manufacturer
Sputniks
Mission
Operational Commercial Com/Met
Bus & Motor
CUBESAT 3U, Unknown motor
Mass
2.98 kg wet, 2.98 kg dry
Launch date (UTC)
2023-06-27 (3 years ago)
Launch vehicle
SOYUZ-2-1B
Launch site
Vostochny Cosmodrome (VOSTO)
Object type
Unknown
Shape & HBR
Box, 0.2 m
Radar Cross Section
0.035 m², Medium (>0.1 m² and < 1m²)

Expand to show TLE details & history
Last TLE update: 7 hours ago

TLE from 7 hours ago
0 OBJECT Z
1 57189U 23091Z   26208.26117913  .00017409  00000-0  47932-3 0  9992
2 57189  97.5075 278.5786 0005203 284.9844  75.0824 15.37211755170840
Epoch: 2026-07-27T06:16Z
TLE epoch observation values (Epoch: 2026-07-27T06:16:05.876Z)
Latitude
-0.00005°
Longitude
-120.39317°
Altitude
456.556 km
Speed
7.639 km/s
True Right ascension
18h 34m 18s
True Declination
0° 00' 00"
Sunlit
Object was in full shadow at epoch
Visualization orbit readout
Latitude
Unknown
Longitude
Unknown
Altitude
Unknown
Speed
Unknown
Apparent Right ascension
Unknown
Apparent Declination
Unknown
Sunlit
N/A
Visualization observer readout
Local Sidereal Time
02:52:28
Azimuth
Unknown
Elevation
Unknown
Doppler factor
Unknown
Orbital elements
Apogee altitude
454.86 km
Perigee altitude
447.753 km
Semi-major axis
6,829.443 km
Eccentricity
0.00052
Inclination
97.5075°
RAAN
278.5786°
Arg. of periapsis
284.9844°
True anomaly
75.14002°
Mean anomaly
75.0824°
Eccentric anomaly
75.11121°
Mean motion
3.84561 °/min
Orbital period
93.61 mins
BSTAR
0.00047932
Loading maneuver chart data...
Computing Atmospheric mass density...
Loading historical data...
Loading historical data...
Loading historical data...
Loading historical data...
Loading historical data...
Loading historical data...
Loading historical data...

Documentation

Showing up to 5 results
|